星链-35726(STARLINK-35726)

导读 | 豆包AI

STARLINK-35726是美国太空探索技术公司(SpaceX)星链星座的成员,于2025年10月31日发射升空。作为星链网络低轨卫星群的一员,它承担着为全球提供高速互联网接入服务的任务,尤其能为偏远地区、灾害现场等基础设施匮乏区域提供网络支持,进一步扩充了星链星座的覆盖规模与服务能力。

Basic Information
目录编号:
66280
目录名称:
STARLINK-35726
国际标识:
2025-247R
轨道中心:
EARTH
卫星名称:
星链-35726
卫星全名:
星链-35726(STARLINK-35726)
卫星状态:
在轨 (已飞行180 天)
发射日期:
2025-10-31 UTC
国别 :
美国 (US)
星等 :
--
Orbit Information
数据来源 国际轨道数据 AOE轨道数据
星历时间 2026-04-29T03:28:26+0800
10小时前
查看轨道信息
2026-04-29T11:00:00+0800
3小时前
查看轨道信息
半长轴 6843.341km 6843.202km
偏心率 0.0000927 0.0000867
轨道倾角 53.161° 53.160°
近地点辐角 100.047° 91.045°
升交点赤经 318.199° 316.734°
平近点角 260.063° 201.322°
近地点 464.569km 464.471km
远地点 465.839km 465.659km
周期 93.899分钟 93.896分钟
每日圈数 15.335593 15.336059
Detailed Information
固有亮度:
5
最大亮度:
2.5
卫星平台:
Starlink V1.0
覆盖范围:
全球
运营商:
太空探索技术公司
运营商所在国:
美国
制造商(研发单位):
太空探索技术公司
制造商所在国:
美国
使用方式:
暂无
Satellite Introduction
Starlink 计划是 SpaceX 推出的全球卫星互联网项目,通过发射低轨道卫星,为全球尤其是偏远地区提供高速、低延迟的互联网服务。自 2019 年起,Starlink 已部署数千颗卫星,旨在缩小全球数字鸿沟,推动互联网普及。该项目还为军事、航空等行业提供通信支持,带来广泛经济效益。
2D Orbit Map
3D Orbit Map
Orbit Altitude Analysis Chart
Orbit Inclination Analysis Chart
Orbit Comprehensive Analysis Chart
View Comprehensive Chart